Location: *
(45.9500°N, 9.0833°E)
Time: 06:20:43
(UTC+00:00)

SR - Pass Details

Date: 15 June 2021
Orbit: 577 x 878 km, 66.7° (Epoch: 24 July)

Event Time Altitude Azimuth Distance (km) Brightness Sun altitude
Rises 01:01:31 0° 329° (NNW) 3,351 ? -17.3°
Reaches altitude 10° 01:04:10 10° 336° (NNW) 2,371 ? -17.1°
Maximum altitude 01:09:22 46° 49° (NE) 1,006 ? -16.7°
Drops below altitude 10° 01:14:08 10° 122° (ESE) 2,164 ? -16.4°
Sets 01:16:27 0° 129° (SE) 3,029 ? -16.2°
